Date,TemperatureHighF,TemperatureAvgF,TemperatureLowF,DewpointHighF,DewpointAvgF,DewpointLowF,HumidityHigh,HumidityAvg,HumidityLow,PressureMaxIn,PressureMinIn,WindSpeedMaxMPH,WindSpeedAvgMPH,GustSpeedMaxMPH,PrecipitationSumIn
2014-1-1,67,48,32,52,42,30,97,79,55,30.24,29.91,16,3,17,0.00
2014-1-2,46,34,25,36,23,20,80,65,44,30.46,30.09,15,3,15,0.00
2014-1-3,53,37,24,29,24,19,82,62,37,30.47,30.10,13,2,13,0.00
2014-1-4,68,52,37,54,44,29,89,75,56,30.10,29.76,23,5,23,0.00
2014-1-5,61,38,23,58,30,14,91,73,52,30.49,29.74,20,5,22,0.01
2014-1-6,31,21,14,13,7,4,74,56,32,30.74,30.48,15,2,15,0.00
2014-1-7,49,31,16,18,13,9,81,52,23,30.62,30.34,12,2,17,0.00
2014-1-8,50,43,37,38,31,18,75,64,43,30.35,30.15,17,4,17,0.00
2014-1-9,48,43,38,48,42,37,99,96,74,30.22,30.02,9,1,11,0.22
2014-1-10,63,59,49,62,58,48,99,98,92,30.02,29.67,17,3,18,0.68
2014-1-11,67,52,43,51,40,32,98,68,29,30.08,29.80,17,2,17,0.00
2014-1-12,72,55,40,53,38,32,79,56,23,30.07,29.80,20,3,22,0.00
2014-1-13,65,57,41,58,41,27,93,58,29,30.06,29.77,19,3,19,0.00
2014-1-14,71,52,36,38,30,22,72,48,17,30.28,29.99,17,3,17,0.00
2014-1-15,55,42,33,29,25,23,67,53,29,30.37,30.11,14,2,14,0.00
2014-1-16,64,50,38,38,31,22,66,51,33,30.14,30.03,12,2,13,0.00
2014-1-17,53,44,33,22,19,14,59,37,21,30.34,30.14,10,2,12,0.00
2014-1-18,68,49,32,41,29,19,71,49,24,30.22,30.02,19,3,19,0.00
2014-1-19,66,48,37,32,28,25,66,47,24,30.30,30.06,8,1,8,0.00
2014-1-20,77,57,41,52,40,28,70,53,38,30.13,29.83,18,3,18,0.00
2014-1-21,54,42,29,30,20,13,63,42,25,30.37,30.13,16,3,16,0.00
2014-1-22,64,44,28,32,25,15,67,48,26,30.19,30.04,11,1,11,0.00
2014-1-23,44,37,29,29,19,5,58,47,36,30.72,30.14,22,4,22,0.00
2014-1-24,45,31,24,19,9,5,66,41,23,30.72,30.27,11,2,11,0.00
2014-1-25,66,44,28,36,28,19,74,55,27,30.28,29.99,12,2,12,0.00
2014-1-26,72,54,42,41,37,32,72,56,29,29.99,29.66,14,1,15,0.00
2014-1-27,49,42,31,39,20,6,78,43,26,30.27,29.75,16,4,20,0.00
2014-1-28,37,30,25,16,10,4,64,44,31,30.47,30.27,9,3,14,0.00
2014-1-29,50,32,17,15,11,6,71,45,18,30.49,30.24,8,1,9,0.00
2014-1-30,55,41,27,46,30,14,83,64,49,30.24,29.89,22,3,22,0.00
2014-1-31,76,62,51,58,54,46,90,78,54,29.92,29.78,20,4,20,0.00
2014-2-1,67,56,40,64,54,39,97,93,86,29.97,29.75,14,3,15,0.46
2014-2-2,40,35,32,39,34,30,97,96,94,30.24,29.96,13,3,13,0.38
2014-2-3,41,36,32,38,34,30,97,93,85,30.28,30.01,9,1,10,0.00
2014-2-4,44,39,35,44,38,34,98,97,93,30.10,29.87,8,1,10,0.43
2014-2-5,39,32,25,38,26,18,98,79,66,30.49,30.10,14,4,15,0.00
2014-2-6,33,26,21,23,19,15,83,75,61,30.58,30.41,11,2,11,0.00
2014-2-7,36,31,27,31,27,22,96,84,68,30.41,30.24,8,1,8,0.00
2014-2-8,52,39,32,44,37,31,98,92,74,30.25,30.03,12,1,12,0.09
2014-2-9,55,45,37,47,42,36,98,92,74,30.12,30.01,9,1,10,0.00
2014-2-10,42,36,34,40,34,28,97,93,77,30.25,30.09,11,3,15,0.03
2014-2-11,36,32,29,30,27,23,94,82,62,30.32,30.18,9,2,14,0.17
2014-2-12,50,37,29,35,30,26,95,78,40,30.22,30.04,12,1,12,0.17
2014-2-13,65,46,29,43,36,27,95,73,42,30.09,29.88,11,2,11,0.00
2014-2-14,71,56,45,51,40,30,91,60,26,30.05,29.75,17,4,17,0.00
2014-2-15,70,50,35,37,33,30,84,55,25,30.18,30.00,13,2,14,0.00
2014-2-16,76,61,46,61,51,34,89,70,55,30.08,29.88,15,2,15,0.00
2014-2-17,76,66,55,64,49,32,93,60,20,30.11,29.87,17,3,17,0.00
2014-2-18,79,63,49,63,50,32,89,62,43,30.09,29.84,14,2,15,0.00
2014-2-19,76,68,60,63,62,59,97,82,63,29.92,29.67,21,3,21,0.00
2014-2-20,78,70,59,67,56,35,87,66,24,29.93,29.62,29,6,29,0.00
2014-2-21,70,50,34,32,28,18,80,47,14,30.16,30.00,6,1,8,0.00
2014-2-22,76,59,46,47,39,32,69,51,24,30.05,29.83,12,2,13,0.00
2014-2-23,80,63,50,63,53,43,92,72,49,30.06,29.86,13,3,13,0.00
2014-2-24,61,52,44,48,44,38,81,72,62,30.14,30.01,10,2,11,0.00
2014-2-25,54,49,44,47,44,41,95,81,69,30.12,29.99,11,2,11,0.23
2014-2-26,46,38,30,43,28,22,93,69,48,30.27,30.08,13,3,13,0.03
2014-2-27,60,40,22,31,25,19,91,58,29,30.18,29.91,11,1,11,0.00
2014-2-28,73,53,38,55,44,30,84,73,47,29.91,29.73,19,3,21,0.00
2014-3-1,80,71,67,66,64,63,89,79,60,29.92,29.86,20,3,20,0.00
2014-3-2,68,40,20,65,38,17,96,92,76,30.26,29.89,19,4,19,0.07
2014-3-3,26,22,17,23,18,14,91,86,79,30.46,30.26,14,3,14,0.01
2014-3-4,45,32,26,36,27,23,95,84,61,30.34,30.06,9,1,12,0.47
2014-3-5,48,39,27,40,34,26,97,83,67,30.15,30.01,9,1,9,0.15
2014-3-6,60,47,39,41,37,32,90,72,36,30.22,30.04,9,2,12,0.02
2014-3-7,68,51,34,44,39,33,98,69,38,30.07,29.88,10,2,14,0.00
2014-3-8,60,50,39,56,47,37,94,89,77,30.26,29.90,14,2,14,0.05
2014-3-9,56,45,38,49,42,36,96,89,74,30.33,30.19,9,2,9,0.01
2014-3-10,80,58,40,56,48,40,99,73,32,30.19,29.86,11,1,12,0.01
2014-3-11,80,66,56,61,57,54,96,75,45,29.86,29.51,17,3,18,0.00
2014-3-12,62,54,44,56,34,23,86,49,25,30.25,29.69,16,5,21,0.00
2014-3-13,72,54,34,36,32,26,79,47,24,30.32,30.07,11,1,11,0.00
2014-3-14,70,57,44,54,48,34,86,70,55,30.10,29.97,14,2,17,0.00
2014-3-15,68,62,56,63,58,53,97,90,79,29.99,29.65,22,2,22,0.35
2014-3-16,56,49,41,55,46,35,98,89,79,30.01,29.68,19,5,19,0.15
2014-3-17,64,48,39,45,38,34,86,69,36,30.00,29.76,10,2,12,0.00
2014-3-18,79,61,43,56,48,38,88,65,37,29.80,29.62,21,5,22,0.00
2014-3-19,65,57,48,57,40,33,78,54,37,30.18,29.81,9,3,13,0.00
2014-3-20,78,58,41,41,36,28,75,48,18,30.22,30.01,9,1,9,0.00
2014-3-21,83,65,49,60,50,33,78,60,39,30.01,29.80,18,2,18,0.00
2014-3-22,80,67,59,67,61,52,97,82,62,30.00,29.88,10,2,11,0.00
2014-3-23,59,52,45,52,46,42,93,81,63,30.29,30.00,16,3,16,0.00
2014-3-24,68,52,38,41,38,33,95,64,33,30.23,29.99,9,1,9,0.00
2014-3-25,64,52,42,38,32,26,77,51,27,30.36,30.13,14,2,15,0.00
2014-3-26,64,51,40,47,38,30,76,60,36,30.23,29.97,22,4,22,0.00
2014-3-27,68,62,54,67,60,47,97,91,76,29.97,29.69,21,4,21,0.06
2014-3-28,85,70,55,69,64,49,95,83,53,29.95,29.70,10,2,11,0.16
2014-3-29,75,60,46,50,43,36,93,60,27,30.23,29.95,12,3,12,0.00
2014-3-30,80,63,44,48,42,35,72,49,27,30.22,29.99,15,2,15,0.00
2014-3-31,81,66,54,60,55,43,87,69,44,30.00,29.84,19,3,20,0.00
2014-4-1,82,70,62,67,63,59,94,79,55,29.99,29.83,16,3,17,0.00
2014-4-2,75,71,68,70,67,65,92,87,77,29.88,29.71,21,4,25,0.00
2014-4-3,85,76,67,70,68,59,88,77,55,29.77,29.61,26,5,26,0.00
2014-4-4,67,60,51,60,40,36,77,48,34,30.12,29.76,16,2,18,0.00
2014-4-5,57,51,46,45,40,35,93,67,60,30.14,29.93,13,2,13,0.06
2014-4-6,50,48,46,49,47,44,98,96,91,29.96,29.71,10,2,12,0.84
2014-4-7,60,52,48,54,49,47,98,90,73,29.96,29.74,10,2,11,0.00
2014-4-8,70,58,48,50,44,34,97,65,30,30.14,29.92,21,4,21,0.00
2014-4-9,83,63,42,48,43,37,86,53,26,30.24,30.03,12,2,12,0.00
2014-4-10,86,70,56,60,54,48,82,59,35,30.04,29.85,22,4,22,0.00
2014-4-11,85,71,59,64,60,57,93,71,47,30.02,29.88,16,3,17,0.00
2014-4-12,86,73,64,66,62,60,88,71,49,29.96,29.77,24,4,24,0.00
2014-4-13,75,69,65,70,65,59,95,87,75,29.81,29.60,24,4,24,0.10
2014-4-14,70,51,40,68,47,35,98,84,66,30.20,29.62,17,4,17,0.05
2014-4-15,66,49,32,39,33,25,94,59,25,30.32,30.13,11,1,12,0.00
2014-4-16,70,53,38,42,38,34,84,61,33,30.18,29.97,17,2,17,0.00
2014-4-17,73,58,43,56,49,40,97,73,49,30.17,30.05,9,1,10,0.00
2014-4-18,79,66,53,56,51,48,87,63,35,30.21,30.07,14,1,14,0.00
2014-4-19,86,68,52,60,55,50,97,68,36,30.18,30.05,9,1,10,0.00
2014-4-20,84,70,59,64,60,55,91,71,45,30.12,29.97,13,1,16,0.00
2014-4-21,82,70,61,69,63,58,96,80,61,30.04,29.86,13,2,14,0.09
2014-4-22,86,71,59,67,62,58,99,77,42,30.01,29.87,7,1,9,0.01
2014-4-23,89,74,59,67,61,56,96,67,42,29.92,29.73,17,2,17,0.00
2014-4-24,87,74,63,69,62,51,89,70,37,29.90,29.73,15,2,15,0.00
2014-4-25,87,70,50,53,44,33,85,45,16,30.03,29.86,9,1,10,0.00
2014-4-26,89,72,57,72,61,43,89,69,53,29.88,29.65,18,2,18,0.00
2014-4-27,86,77,71,74,70,66,93,81,65,29.65,29.39,19,3,19,0.00
2014-4-28,86,74,62,71,57,46,97,61,26,29.64,29.43,10,1,10,0.00
2014-4-29,80,66,54,51,45,37,76,50,22,29.91,29.58,19,2,21,0.00
2014-4-30,70,56,48,45,42,38,81,60,36,30.11,29.90,14,1,15,0.00
2014-5-1,76,60,41,49,40,35,93,54,25,30.14,29.99,14,1,14,0.00
2014-5-2,84,66,48,48,41,32,83,46,17,30.03,29.88,12,1,13,0.00
2014-5-3,93,72,51,55,46,38,73,43,18,30.01,29.93,7,1,7,0.00
2014-5-4,92,76,60,53,49,44,66,41,22,30.03,29.91,15,2,15,0.00
2014-5-5,89,75,61,65,55,37,82,52,34,29.93,29.76,19,3,19,0.00
2014-5-6,88,75,63,67,62,59,90,68,45,29.82,29.68,19,3,19,0.00
2014-5-7,86,75,66,69,65,61,89,73,53,29.85,29.74,16,3,16,0.00
2014-5-8,80,71,63,72,68,62,98,90,76,29.87,29.78,21,3,24,2.88
2014-5-9,86,74,63,77,70,62,100,89,70,29.89,29.74,16,1,16,0.02
2014-5-10,87,75,64,74,69,64,99,83,64,29.89,29.76,16,2,16,0.01
2014-5-11,91,79,70,74,72,69,97,79,56,29.83,29.69,18,3,20,0.00
2014-5-12,88,77,65,76,71,64,98,83,61,29.95,29.72,16,2,19,0.60
2014-5-13,65,59,55,65,56,51,98,90,76,30.16,29.90,9,2,10,0.13
2014-5-14,68,59,51,57,50,44,98,76,43,30.22,30.10,15,2,15,0.27
2014-5-15,83,64,46,55,50,44,96,65,32,30.23,30.04,11,1,12,0.00
2014-5-16,87,70,52,59,54,49,96,61,32,30.12,29.89,12,1,12,0.00
2014-5-17,85,72,56,63,56,44,86,59,44,30.02,29.85,13,2,13,0.00
2014-5-18,86,73,60,68,63,58,99,73,47,30.09,29.97,12,2,12,0.00
2014-5-19,86,75,63,68,64,61,97,72,50,30.03,29.90,16,3,19,0.00
2014-5-20,88,77,69,70,67,64,87,71,51,30.03,29.93,17,3,20,0.00
2014-5-21,90,78,67,69,67,64,95,71,47,30.08,29.93,14,2,14,0.00
2014-5-22,91,77,66,71,68,65,98,75,48,30.10,29.96,9,1,10,0.00
2014-5-23,89,76,66,72,68,65,98,77,48,30.08,29.95,12,1,12,0.00
2014-5-24,87,76,68,71,68,65,96,78,54,30.05,29.92,10,1,10,0.02
2014-5-25,90,78,68,72,69,65,96,74,50,30.02,29.91,11,1,11,0.00
2014-5-26,86,74,65,73,69,63,94,83,60,30.03,29.86,17,1,17,0.00
2014-5-27,82,70,64,70,67,62,99,90,65,29.96,29.82,9,1,9,0.79
2014-5-28,83,73,66,71,67,65,99,84,58,29.89,29.78,9,1,9,0.37
2014-5-29,88,75,65,72,68,64,99,82,54,29.86,29.74,7,0,7,0.00
2014-5-30,84,74,68,75,70,67,99,88,66,29.84,29.77,8,1,8,0.00
2014-5-31,87,76,70,75,71,69,98,87,61,29.91,29.83,9,1,9,0.02
2014-6-1,92,79,69,76,72,68,99,82,53,29.94,29.81,9,1,10,0.00
2014-6-2,93,81,73,76,73,71,93,78,53,29.99,29.85,13,2,13,0.00
2014-6-3,92,81,71,76,73,70,98,77,54,29.99,29.85,10,1,10,0.00
2014-6-4,92,81,72,76,73,70,97,77,56,29.87,29.75,12,2,12,0.00
2014-6-5,91,80,72,77,74,71,98,81,60,29.85,29.75,14,1,14,0.00
2014-6-6,93,82,73,76,74,72,98,78,55,29.95,29.79,11,1,12,0.00
2014-6-7,98,85,73,76,73,71,94,70,47,29.90,29.80,11,1,12,0.00
2014-6-8,92,82,75,77,74,72,92,78,57,29.92,29.73,13,1,14,0.00
2014-6-9,77,71,65,73,69,64,99,93,78,29.83,29.69,16,1,26,1.19
2014-6-10,86,74,63,70,66,62,99,78,49,29.80,29.69,14,1,15,0.01
2014-6-11,95,79,64,73,68,62,98,71,45,29.87,29.73,8,1,8,0.00
2014-6-12,83,75,71,76,71,68,98,90,73,29.96,29.71,13,1,13,0.27
2014-6-13,92,80,70,76,72,69,98,79,55,29.95,29.84,4,1,7,0.00
2014-6-14,91,80,69,78,72,68,96,80,58,29.91,29.79,13,2,15,0.00
2014-6-15,94,83,74,77,74,72,94,76,55,29.92,29.78,15,2,17,0.00
2014-6-16,93,83,74,78,75,72,97,77,56,30.01,29.89,13,2,13,0.00
2014-6-17,92,83,76,80,75,72,91,80,63,29.99,29.88,14,2,14,0.01
2014-6-18,95,80,74,78,74,71,95,82,54,29.98,29.89,20,2,20,0.04
2014-6-19,93,85,74,78,74,71,96,73,53,30.04,29.94,12,1,12,0.00
2014-6-20,95,84,72,78,72,64,97,72,39,30.05,29.94,8,1,9,0.00
2014-6-21,95,82,72,78,73,69,94,74,45,30.01,29.86,8,1,8,0.00
2014-6-22,78,76,73,77,74,72,98,94,87,29.92,29.80,6,0,6,0.14
2014-6-23,92,79,72,78,74,71,99,87,61,29.91,29.77,19,1,19,0.03
2014-6-24,93,77,70,80,73,67,99,87,61,30.00,29.90,11,1,12,0.30
2014-6-25,81,73,69,76,71,68,98,94,84,30.04,29.93,5,0,6,0.06
2014-6-26,91,78,70,78,73,69,99,84,61,30.01,29.85,11,1,15,0.00
2014-6-27,86,77,71,79,73,70,97,89,73,29.91,29.80,14,2,14,0.27
2014-6-28,93,82,75,80,76,72,94,82,61,29.92,29.83,18,3,18,0.03
2014-6-29,94,85,78,79,77,75,91,77,59,30.00,29.89,14,2,17,0.00
2014-6-30,95,85,76,79,75,72,92,74,51,29.96,29.82,15,2,15,0.00
2014-7-1,96,84,73,79,75,71,97,77,53,29.96,29.81,11,1,11,0.00
2014-7-2,97,84,75,77,74,72,95,74,47,30.03,29.91,7,0,8,0.00
2014-7-3,86,77,69,76,71,67,98,84,62,30.12,30.00,12,1,15,0.59
2014-7-4,90,80,70,77,72,69,98,79,58,30.19,30.09,11,1,11,0.00
2014-7-5,93,80,68,75,70,65,96,75,53,30.16,30.02,8,1,10,0.00
2014-7-6,96,83,69,77,73,68,98,74,47,30.03,29.91,9,1,10,0.00
2014-7-7,97,85,72,78,74,70,97,72,48,29.97,29.87,11,1,13,0.00
2014-7-8,98,85,74,79,75,72,92,72,49,29.98,29.87,10,1,10,0.00
2014-7-9,99,86,75,77,73,70,86,68,45,30.03,29.89,9,1,9,0.00
2014-7-10,99,86,75,75,72,69,88,66,44,30.02,29.91,10,1,11,0.00
2014-7-11,99,85,70,76,72,68,93,67,42,30.09,29.99,9,1,9,0.00
2014-7-12,101,87,72,77,72,70,95,65,37,30.12,29.98,9,0,10,0.00
2014-7-13,104,89,75,78,73,69,89,64,35,30.04,29.90,8,1,8,0.00
2014-7-14,103,87,74,77,73,71,94,68,37,29.96,29.83,12,1,12,0.01
2014-7-15,91,80,72,76,70,58,95,73,35,29.98,29.88,9,1,11,0.01
2014-7-16,94,79,65,71,66,59,87,65,44,29.99,29.85,8,1,9,0.00
2014-7-17,76,70,67,68,66,64,99,88,70,29.93,29.84,18,1,18,0.88
2014-7-18,69,67,64,68,66,63,99,96,90,29.97,29.86,8,1,10,0.03
2014-7-19,76,70,66,69,67,65,99,91,78,30.01,29.95,4,0,5,0.03
2014-7-20,89,77,65,75,70,64,99,81,60,30.02,29.91,6,0,6,0.00
2014-7-21,94,80,68,80,73,66,98,80,57,30.03,29.93,7,0,7,0.00
2014-7-22,94,82,71,78,73,69,98,76,51,30.03,29.96,7,0,8,0.00
2014-7-23,98,82,69,76,71,68,98,73,43,30.05,29.92,5,0,5,0.00
2014-7-24,91,83,73,76,74,71,92,76,59,29.96,29.90,4,0,5,0.33
2014-7-25,98,84,70,80,74,69,99,76,49,29.98,29.88,11,1,12,0.00
2014-7-26,100,86,73,79,75,72,96,72,43,29.98,29.88,9,1,11,0.00
2014-7-27,101,88,76,79,76,73,94,70,46,30.00,29.92,11,1,11,0.00
2014-7-28,98,84,75,81,75,69,91,77,55,30.06,29.96,10,1,11,0.00
2014-7-29,97,82,72,72,68,61,83,64,35,30.09,29.98,9,0,9,0.00
2014-7-30,88,79,73,75,70,67,85,75,62,30.04,29.89,10,1,11,0.00
2014-7-31,77,72,70,76,71,67,99,95,75,29.97,29.87,11,1,11,3.15
2014-8-1,75,70,67,70,69,67,99,95,86,30.00,29.92,7,1,8,0.03
2014-8-2,84,75,68,74,70,67,99,87,66,30.04,29.95,12,1,12,0.01
2014-8-3,88,79,70,76,72,69,97,81,63,30.02,29.92,12,1,12,0.00
2014-8-4,91,81,72,76,73,70,98,78,57,30.02,29.93,8,1,9,0.00
2014-8-5,96,84,72,80,75,71,98,77,53,30.04,29.94,7,0,7,0.00
2014-8-6,97,85,74,80,76,73,97,75,50,30.00,29.87,11,1,11,0.00
2014-8-7,97,85,76,82,77,74,95,78,58,29.91,29.76,10,1,12,0.00
2014-8-8,99,87,77,81,77,73,91,73,52,29.91,29.80,12,1,12,0.00
2014-8-9,99,87,76,81,77,74,95,74,50,29.96,29.86,9,1,9,0.00
2014-8-10,103,87,75,81,76,72,95,73,45,29.98,29.86,6,0,7,0.00
2014-8-11,97,85,76,79,74,71,94,72,47,29.98,29.89,9,0,10,0.00
2014-8-12,93,81,71,75,67,59,94,65,36,30.00,29.92,11,1,11,0.00
2014-8-13,92,78,64,69,64,60,91,65,39,30.06,29.95,7,0,7,0.00
2014-8-14,93,79,65,71,66,62,95,68,41,30.04,29.92,8,1,9,0.00
2014-8-15,97,81,67,76,70,64,90,71,48,29.99,29.83,9,1,10,0.00
2014-8-16,102,86,75,79,75,71,92,71,44,29.91,29.81,12,1,13,0.00
2014-8-17,89,83,78,79,76,72,92,80,68,29.95,29.84,12,1,12,0.00
2014-8-18,93,84,77,80,76,73,91,79,64,29.93,29.80,10,1,10,0.00
2014-8-19,100,85,74,80,74,69,94,72,41,29.90,29.81,25,1,25,0.00
2014-8-20,99,85,74,79,74,70,96,72,46,29.95,29.85,13,2,16,0.00
2014-8-21,99,87,76,79,74,69,97,70,40,30.01,29.92,14,2,15,0.00
2014-8-22,102,87,76,79,74,72,93,69,41,30.02,29.90,11,1,11,0.00
2014-8-23,100,86,73,76,72,68,95,67,37,29.97,29.85,8,1,9,0.00
2014-8-24,103,87,74,77,73,70,92,66,38,29.93,29.81,10,1,11,0.00
2014-8-25,102,87,73,77,72,69,93,64,38,29.94,29.83,8,0,8,0.00
2014-8-26,99,85,74,77,73,70,92,69,45,30.00,29.89,10,1,11,0.00
2014-8-27,97,82,72,76,68,59,96,66,32,30.02,29.90,9,1,10,0.00
2014-8-28,99,84,71,76,71,65,90,66,42,29.94,29.79,12,1,12,0.00
2014-8-29,94,81,75,80,74,70,98,81,56,29.90,29.80,11,1,13,0.17
2014-8-30,95,82,71,76,73,70,96,77,50,29.93,29.83,8,1,8,0.00
2014-8-31,97,83,74,77,74,72,97,77,48,29.96,29.85,14,2,14,0.00
2014-9-1,98,84,76,77,74,68,93,73,44,29.91,29.82,13,2,13,0.00
2014-9-2,100,86,77,78,75,72,92,74,43,29.98,29.84,13,2,14,0.00
2014-9-3,99,85,74,78,74,70,98,74,42,29.98,29.88,10,1,15,0.00
2014-9-4,100,86,75,78,74,70,96,70,43,30.01,29.92,9,1,13,0.00
2014-9-5,102,85,73,78,72,69,97,69,38,30.06,29.92,10,1,11,0.00
2014-9-6,98,82,71,78,72,69,97,75,42,30.04,29.88,15,1,15,0.77
2014-9-7,87,77,72,78,73,72,99,90,66,30.04,29.92,7,0,7,0.00
2014-9-8,95,82,71,78,74,70,99,80,53,30.01,29.88,7,0,8,0.00
2014-9-9,96,84,73,78,74,71,97,74,48,29.95,29.79,14,1,14,0.00
2014-9-10,98,85,75,78,75,72,93,73,50,29.82,29.72,14,2,16,0.00
2014-9-11,96,80,72,83,75,72,99,86,57,29.96,29.79,8,1,12,1.22
2014-9-12,76,72,64,75,71,62,99,97,88,30.13,29.92,9,1,11,0.03
2014-9-13,66,62,60,62,60,59,99,95,85,30.23,30.11,10,2,11,0.27
2014-9-14,82,70,61,71,65,60,97,85,65,30.21,30.07,6,0,7,0.00
2014-9-15,85,75,68,76,70,66,98,86,68,30.12,30.03,5,0,6,0.01
2014-9-16,89,79,72,77,73,71,97,84,62,30.08,29.92,5,0,5,0.00
2014-9-17,93,80,71,79,74,70,99,82,57,29.96,29.80,7,0,7,0.00
2014-9-18,88,77,70,79,72,68,97,85,67,29.90,29.79,10,1,14,0.00
2014-9-19,87,77,69,76,72,67,99,87,66,29.94,29.85,8,0,9,0.02
2014-9-20,92,79,69,76,70,67,99,78,49,29.99,29.89,8,1,11,0.01
2014-9-21,93,80,68,75,70,66,97,73,48,30.05,29.94,5,0,6,0.00
2014-9-22,84,75,64,71,63,56,95,69,40,30.15,30.02,9,1,11,0.30
2014-9-23,83,69,57,62,57,54,92,69,42,30.17,30.04,4,0,7,0.00
2014-9-24,86,70,54,65,58,52,94,68,39,30.16,30.06,7,0,10,0.00
2014-9-25,86,72,59,67,61,56,94,71,45,30.16,30.05,6,0,8,0.00
2014-9-26,87,74,61,69,63,58,93,71,45,30.11,29.98,6,0,7,0.00
2014-9-27,86,74,64,70,64,60,90,73,49,30.05,29.93,6,0,7,0.00
2014-9-28,88,76,68,71,65,62,93,72,48,30.04,29.93,8,1,10,0.00
2014-9-29,88,75,64,73,67,61,93,76,55,29.97,29.85,7,0,9,0.00
2014-9-30,90,78,67,75,70,64,94,76,55,29.87,29.72,9,1,11,0.00
2014-10-1,92,80,71,78,73,69,98,81,54,29.81,29.70,8,1,11,0.00
2014-10-2,95,80,68,78,73,67,98,83,54,29.87,29.62,18,2,22,0.62
2014-10-3,80,68,57,67,57,51,97,72,38,30.17,29.87,10,1,11,0.01
2014-10-4,79,62,47,53,47,37,93,61,27,30.19,29.96,7,0,7,0.00
2014-10-5,86,69,56,66,57,48,80,67,49,29.96,29.80,11,2,13,0.00
2014-10-6,85,70,60,68,64,58,98,81,49,29.94,29.80,12,1,16,0.45
2014-10-7,93,76,66,77,70,63,98,83,54,29.92,29.83,11,1,11,0.00
2014-10-8,88,78,73,74,72,70,96,83,61,30.01,29.91,10,1,12,0.00
2014-10-9,87,78,72,76,71,66,97,81,59,29.98,29.84,10,1,10,0.00
2014-10-10,93,80,71,76,72,70,97,79,52,29.93,29.78,13,1,13,0.00
2014-10-11,76,64,59,73,63,58,99,96,81,30.02,29.83,10,1,11,1.11
2014-10-12,70,63,58,70,61,56,99,95,84,29.99,29.68,15,1,15,0.08
2014-10-13,74,63,57,72,60,52,99,92,81,29.87,29.55,23,2,23,0.93
2014-10-14,75,61,52,53,49,44,85,67,36,30.03,29.87,18,2,22,0.00
2014-10-15,83,64,50,58,51,45,94,64,34,30.08,29.94,6,0,6,0.00
2014-10-16,88,68,53,60,55,51,95,65,34,29.94,29.79,10,1,10,0.00
2014-10-17,89,72,62,67,62,56,92,73,47,29.92,29.79,13,1,13,0.00
2014-10-18,80,68,60,65,61,55,97,79,58,30.08,29.92,8,1,11,0.00
2014-10-19,76,62,53,58,55,52,97,78,49,30.15,30.03,9,0,9,0.01
2014-10-20,80,64,52,65,57,50,97,80,54,30.09,29.98,5,0,5,0.00
2014-10-21,82,67,55,66,59,53,97,79,52,30.09,29.98,5,0,6,0.00
2014-10-22,81,67,58,65,59,55,99,78,46,30.14,30.01,9,0,9,0.00
2014-10-23,78,65,57,61,56,53,91,76,52,30.14,30.03,6,0,6,0.00
2014-10-24,83,66,54,65,58,52,95,78,51,30.16,30.05,7,0,8,0.00
2014-10-25,90,71,59,69,63,58,95,78,47,30.14,30.01,10,1,11,0.00
2014-10-26,87,71,61,68,62,58,95,76,50,30.01,29.86,11,1,11,0.00
2014-10-27,84,73,61,68,63,59,97,71,50,29.89,29.79,15,2,16,0.00
2014-10-28,81,70,66,70,66,61,97,85,68,30.04,29.84,11,1,14,0.00
2014-10-29,75,64,53,66,56,48,97,76,42,30.18,30.04,10,1,10,0.00
2014-10-30,80,63,48,54,50,46,96,67,33,30.15,30.03,7,1,9,0.00
2014-10-31,68,57,47,54,46,39,83,69,46,30.32,30.09,11,1,12,0.00
2014-11-1,61,47,36,39,34,29,90,65,31,30.45,30.31,10,0,10,0.00
2014-11-2,67,51,39,45,39,33,85,65,41,30.39,30.21,14,2,15,0.00
2014-11-3,76,63,49,62,55,44,94,76,57,30.22,30.08,20,3,20,0.00
2014-11-4,73,62,57,67,60,57,98,93,77,30.16,30.05,14,2,15,0.78
2014-11-5,58,57,54,58,56,53,99,99,97,30.21,30.10,7,1,7,0.62
2014-11-6,70,58,49,57,50,38,99,78,48,30.31,30.20,9,1,9,0.00
2014-11-7,68,52,39,47,41,35,92,69,38,30.29,30.01,7,0,8,0.00
2014-11-8,66,54,44,52,45,39,96,74,45,30.12,30.00,14,1,14,0.00
2014-11-9,73,53,37,48,43,34,97,71,39,30.13,29.88,8,1,9,0.00
2014-11-10,78,62,46,61,50,43,93,70,38,29.88,29.65,20,2,22,0.00
2014-11-11,66,50,39,63,42,30,92,71,55,30.19,29.68,18,2,18,0.00
2014-11-12,47,38,33,32,27,20,79,64,50,30.43,30.19,13,2,14,0.00
2014-11-13,37,33,28,21,18,15,68,52,42,30.56,30.43,14,2,14,0.00
2014-11-14,44,35,26,27,22,18,73,60,41,30.50,30.31,5,0,9,0.00
2014-11-15,46,41,38,38,33,27,95,74,60,30.32,30.07,12,1,13,0.04
2014-11-16,41,39,32,41,37,30,98,95,89,30.22,29.96,10,2,11,0.07
2014-11-17,45,33,24,30,24,21,93,72,43,30.45,30.20,12,1,12,0.01
2014-11-18,57,38,24,28,24,19,86,62,29,30.54,30.33,9,1,9,0.00
2014-11-19,67,48,34,46,37,26,92,68,45,30.33,30.14,18,2,18,0.00
2014-11-20,74,57,46,58,52,44,98,85,55,30.16,30.02,14,1,14,0.00
2014-11-21,65,60,57,62,58,55,99,95,89,30.15,30.06,15,2,20,0.23